Find Starlink 1214

NORAD ID: 45224 Int'l Des: 2020-012 Owner: SPXS Country: US Constellation: starlink decayed
LEOCIRCULAR

Re-entered — Jun 7, 2022

Loading 3D Globe...

About Starlink 1214

Starlink 1214 (NORAD 45224) is a starlink constellation satellite (v1.0) launched Feb 17, 2020 by SPXS of US. It re-entered the atmosphere on Jun 7, 2022. with a mass of 260.00 kg.

Altitude History

Loading altitude history...

Two-Line Element Set

1 45224U 20012AY 22157.71127634 .13275819 12156-4 32777-2 0 9993
2 45224 53.0228 226.5122 0008080 326.8910 127.7648 16.28352603130166
Epoch: Jun 6, 2022 • Age: 37599 hours

Current Status

Position data unavailable
Launch Date Feb 17, 2020
Age 6.5 years
Decay Date Jun 7, 2022
Type internet

Technical Details

Classification Payload
Mass 260.00 kg
Dry Mass 248.00 kg
Length 0.20 m
Span 9.00 m
Shape ? Box + pan
Manufacturer SPXS
Bus Type Starlink
Phase Status Unknown Transfer Status
Owner/State SPXS/US

Most Searched